Regional Weather Roundup
Issued by NWS

Home | Current Version | Previous Version | Graphics & Text | Print | Product List | Glossary On
Versions: 1 2 3 4 5 6 7 8 9 10 11 12 13 14 15 16 17 18 19 20 21 22 23 24 25 26 27 28 29 30 31 32 33 34 35 36 37 38 39 40 41 42 43 44 45 46 47 48 49 50
000
ASUS43 KMKX 280200
RWRWI

WISCONSIN REGIONAL WEATHER ROUNDUP
NATIONAL WEATHER SERVICE MILWAUKEE/SULLIVAN WI
900 PM CDT FRI MAY 27 2016

NOTE: "FAIR" INDICATES FEW OR NO CLOUDS BELOW 12,000 FEET WITH NO
SIGNIFICANT WEATHER AND/OR OBSTRUCTIONS TO VISIBILITY.

WIZ001-002-006>008-014>016-023>028-280300-
NORTHWEST WISCONSIN

CITY           SKY/WX    TMP DP  RH WIND       PRES   REMARKS
SUPERIOR ARPT  CLOUDY    47  47  99 E9G16     29.83S
ASHLAND        LGT RAIN  49  47  93 NE8       29.81F
HAYWARD        CLOUDY    56  54  93 N8        29.78S
SIREN          CLOUDY    60  57  90 NE9       29.77S
CUMBERLAND     CLOUDY    61  59  94 N6        29.75S
RICE LAKE      CLOUDY    62  60  95 CALM      29.76S
CHETEK         CLOUDY    62  62  99 NE6       29.74S
LADYSMITH      CLOUDY    67  65  92 CALM      29.76S
EAU CLAIRE     NOT AVBL
MENOMONIE      MOCLDY    64  64  99 CALM      29.73S
NEW RICHMOND   CLOUDY    65  63  94 NE8       29.74F
OSCEOLA        CLOUDY    65  65 100 N3        29.77S
$$

WIZ003>005-009-010-017-018-280300-
NORTH CENTRAL WISCONSIN

CITY           SKY/WX    TMP DP  RH WIND       PRES   REMARKS
MANITOWISH WTR NOT AVBL
ARBOR VITAE    CLOUDY    67  62  83 SE9       29.81R
WOODRUFF       CLOUDY    67  62  83 SE9       29.81R
RHINELANDER    LGT RAIN  65  62  90 SE8       29.83S
EAGLE RIVER      N/A     65  59  80 SE7       29.82S
LAND O LAKES   CLOUDY    66  61  84 SE9       29.83F
PHILLIPS       CLOUDY    67  62  84 E8        29.77S
TOMAHAWK       DRIZZLE   64  62  94 SE3       29.81F
MEDFORD        CLOUDY    65  65 100 E9        29.77S
MERRILL        HVY RAIN  64  64 100 SE8G16    29.81F
$$

WIZ029-030-035-036-043>047-280300-
CENTRAL WISCONSIN

CITY           SKY/WX    TMP DP  RH WIND       PRES   REMARKS
WAUSAU         CLOUDY    66  64  93 E10       29.76F FOG
MOSINEE        CLOUDY    66  66 100 E12       29.78F FOG
MARSHFIELD     CLOUDY    69  65  86 E8        29.76S
STEVENS POINT  CLOUDY    65  65  98 E8        29.78F FOG
WAUPACA        CLOUDY    69  69  99 SE7       29.79R FOG
WAUTOMA        CLOUDY    67  66  97 E5        29.79R
WISC RAPIDS    MOCLDY    68  65  90 SE8       29.77F
CAMP DOUGLAS   NOT AVBL
$$

WIZ011>013-019>022-031-037>040-048>050-280300-
NORTHEAST WISCONSIN

CITY           SKY/WX    TMP DP  RH WIND       PRES   REMARKS
ANTIGO         CLOUDY    64  63  99 E9        29.83S FOG
SHAWANO        RAIN      67  65  93 E6        29.82F
OCONTO         CLOUDY   N/A N/A N/A E6        29.84F
STURGEON BAY   NOT AVBL
GREEN BAY      CLOUDY    67  65  93 SE9       29.83R FOG
MANITOWOC      LGT RAIN  59  57  94 SE5       29.85S FOG
APPLETON       DRIZZLE   66  66 100 SE8       29.80S FOG
CLINTONVILLE   RAIN      66  64  94 E9        29.81S
OSHKOSH        CLOUDY    67  66  97 SE8       29.80S
$$

WIZ032>034-041-042-053>061-280300-
SOUTHWEST WISCONSIN

CITY           SKY/WX    TMP DP  RH WIND       PRES   REMARKS
LA CROSSE      MOCLDY    69  67  93 CALM      29.72R
SPARTA         CLOUDY    69  69  99 CALM      29.74S
VIROQUA        MOCLDY    67  64  91 SE6       29.75R
BOSCOBEL       CLEAR     67  65  93 CALM      29.74R
PRAIRIE DU CHI PTCLDY    68  65  90 CALM      29.73S
PLATTEVILLE    MOCLDY    72  68  89 SE6       29.76S
$$

WIZ056-057-062-063-064-067-068-280300-
SOUTH CENTRAL WISCONSIN

CITY           SKY/WX    TMP DP  RH WIND       PRES   REMARKS
REEDSBURG      CLOUDY    70  68  93 SE5       29.75S
BARABOO/DELLS  CLOUDY    71  65  82 SE9       29.76F
LONE ROCK      NOT AVBL
MINERAL POINT  MOCLDY    72  68  88 S7        29.77S
MADISON        MOCLDY    72  66  81 S9        29.78R
MIDDLETON      MOCLDY    73  67  81 S6        29.79R
WATERTOWN      MOCLDY    69  69 100 SE5       29.79F
MONROE         MOCLDY    72  64  78 SE8       29.78F
JANESVILLE     PTCLDY    73  70  88 SE6       29.78F
$$

WIZ051-052-058>065-066-070>072-280300-
SOUTHEAST WISCONSIN

CITY           SKY/WX    TMP DP  RH WIND       PRES   REMARKS
MILWAUKEE      MOCLDY    69  66  90 S9        29.83S
WAUKESHA       PTCLDY    68  66  94 SE8       29.83S
MILWAUKEE/TIMM MOCLDY    70  64  83 S6        29.83S
RACINE         CLOUDY    67  63  87 S9        29.85S
BURLINGTON     CLOUDY    69  67  93 SE5       29.82S FOG
KENOSHA        MOCLDY    69  66  90 SE8       29.83S
FOND DU LAC    CLOUDY    69  67  93 SE9       29.81R
SHEBOYGAN      LGT RAIN  63  61  93 S9        29.84S FOG
WEST BEND      CLOUDY    66  64  94 CALM      29.83S
JUNEAU         CLOUDY    69  67  93 SE7       29.82S
$$

LSZ147-162-280300-
LAKE SUPERIOR

STATION/POSITION TIME  TEMP    WIND        PRES    WAVE
                       AIR SEA DIR/SP/G            HT/PER
                 (UTC) (F)     (DEG/KT/KT) (MB)    (FT/S)
W MID LAKE BUOY  0050   41 38   40/ 16/ 17 1011.1F   1/ 3
DEVILS ISLAND    0100   44      30/  7/  8 1011.3F
SAXON HARBOR     0100   46     200/  1/  3 1009.8
$$

LMZ867-665-643>646-280300-
LAKE MICHIGAN

STATION/POSITION TIME  TEMP    WIND        PRES    WAVE
                       AIR SEA DIR/SP/G            HT/PER
                 (UTC) (F)     (DEG/KT/KT) (MB)    (FT/S)
CHAMBERS ISLAND  0100   60      90/  6/ 11 1011.5S
N MID LAKE BUOY  0050   51 47  120/  6/  8 1011.8F   0
NORTHPORT PIER   0100   54     120/  5/  7 1011.9S
SISTER BAY       0120   57     110/  9/ 14   N/A
ALGOMA LAKESHORE 0117           70/  9/ 10   N/A
KEWAUNEE LAKESHO 0100           30/  5/  7 1010.6S
SHEBOYGAN LAKESH 0100   58     160/ 10/ 11 1010.7F
PORT WASHINGTON  0140   58      CALM  /  3 1011.2R
S MID LAKE BUOY  0050   58 51  150/ 12/ 14 1010.7R   1
KENOSHA   LAKESH 0100   63     180/ 12/ 15 1010.2F
$$

TC  - TEMPERATURE IN CELSIUS
VSB - VISIBILITY IN STATUTE MILES
WCI - WIND CHILL INDEX
HX  - HEAT INDEX




USA.gov is the U.S. government's official web portal to all federal, state and local government web resources and services.